Tracking 25744 objects as of 25-Jun-2022
HD Live streaming from Space Station
objects crossing your sky now

W-CUBE

Track W-CUBE now!
10-day predictions


NORAD ID: 48965
Int'l Code: 2021-059CQ
Perigee: 521.8 km
Apogee: 541.2 km
Inclination: 97.6 °
Period: 95.1 minutes
Semi major axis: 6902 km
RCS: Unknown
Launch date: June 30, 2021
Source: (FIN)
Launch site: AIR FORCE EASTERN TEST RANGE (AFETR)
aabbcc
Your satellite tracking list
Your tracking list is empty




NASA's NSSDC Master Catalog

Two Line Element Set (TLE):
1 48965U 21059CQ  22175.31693623  .00003406  00000-0  19144-3 0  9994
2 48965  97.5553 304.5286 0014067  70.4606 289.8143 15.13894601 54942
Source of the keplerian elements: AFSPC